TimeCDT,TemperatureF,Dew PointF,Humidity,Sea Level PressureIn,VisibilityMPH,Wind Direction,Wind SpeedMPH,Gust SpeedMPH,PrecipitationIn,Events,Conditions,WindDirDegrees,DateUTC
12:15 AM,71.6,55.4,57,30.05,8.0,Calm,Calm,-,N/A,,Clear,0,2013-07-04 05:15:00
12:35 AM,71.6,55.4,57,30.05,9.0,Calm,Calm,-,N/A,,Partly Cloudy,0,2013-07-04 05:35:00
12:55 AM,71.6,53.6,53,30.05,8.0,Calm,Calm,-,N/A,,Partly Cloudy,0,2013-07-04 05:55:00
1:15 AM,69.8,53.6,56,30.05,5.0,Calm,Calm,-,N/A,,Haze,0,2013-07-04 06:15:00
1:35 AM,69.8,53.6,56,30.04,7.0,Calm,Calm,-,N/A,,Scattered Clouds,0,2013-07-04 06:35:00
1:55 AM,69.8,53.6,56,30.04,6.0,Calm,Calm,-,N/A,,Haze,0,2013-07-04 06:55:00
2:15 AM,69.8,51.8,53,30.03,4.0,Calm,Calm,-,N/A,,Haze,0,2013-07-04 07:15:00
2:35 AM,69.8,53.6,56,30.03,7.0,Calm,Calm,-,N/A,,Partly Cloudy,0,2013-07-04 07:35:00
2:55 AM,69.8,53.6,56,30.03,7.0,Calm,Calm,-,N/A,,Partly Cloudy,0,2013-07-04 07:55:00
3:15 AM,69.8,53.6,56,30.03,7.0,Calm,Calm,-,N/A,,Partly Cloudy,0,2013-07-04 08:15:00
3:35 AM,69.8,53.6,56,30.03,6.0,Calm,Calm,-,N/A,,Haze,0,2013-07-04 08:35:00
3:55 AM,69.8,53.6,56,30.03,6.0,Calm,Calm,-,N/A,,Haze,0,2013-07-04 08:55:00
4:15 AM,69.8,53.6,56,30.03,6.0,Calm,Calm,-,N/A,,Haze,0,2013-07-04 09:15:00
4:35 AM,69.8,53.6,56,30.02,5.0,Calm,Calm,-,N/A,,Haze,0,2013-07-04 09:35:00
4:55 AM,69.8,53.6,56,30.03,6.0,Calm,Calm,-,N/A,,Haze,0,2013-07-04 09:55:00
5:15 AM,69.8,51.8,53,30.02,4.0,Calm,Calm,-,N/A,,Haze,0,2013-07-04 10:15:00
5:35 AM,69.8,51.8,53,30.03,1.8,Calm,Calm,-,N/A,,Haze,0,2013-07-04 10:35:00
5:55 AM,68.0,51.8,56,30.03,2.5,Calm,Calm,-,N/A,,Haze,0,2013-07-04 10:55:00
6:15 AM,69.8,53.6,56,30.03,5.0,Calm,Calm,-,N/A,,Haze,0,2013-07-04 11:15:00
6:35 AM,71.6,53.6,53,30.04,3.0,Calm,Calm,-,N/A,,Haze,0,2013-07-04 11:35:00
6:55 AM,71.6,55.4,57,30.03,4.0,Calm,Calm,-,N/A,,Haze,0,2013-07-04 11:55:00
7:15 AM,73.4,55.4,53,30.04,5.0,Calm,Calm,-,N/A,,Haze,0,2013-07-04 12:15:00
7:35 AM,73.4,55.4,53,30.04,5.0,Calm,Calm,-,N/A,,Haze,0,2013-07-04 12:35:00
7:55 AM,73.4,57.2,57,30.04,7.0,Calm,Calm,-,N/A,,Mostly Cloudy,0,2013-07-04 12:55:00
8:15 AM,75.2,57.2,53,30.05,9.0,Calm,Calm,-,N/A,,Mostly Cloudy,0,2013-07-04 13:15:00
8:35 AM,75.2,57.2,53,30.05,2.5,Calm,Calm,-,N/A,,Light Drizzle,0,2013-07-04 13:35:00
8:55 AM,75.2,57.2,53,30.05,4.0,Calm,Calm,-,N/A,,Haze,0,2013-07-04 13:55:00
9:15 AM,75.2,59.0,57,30.05,9.0,Calm,Calm,-,N/A,,Mostly Cloudy,0,2013-07-04 14:15:00
9:35 AM,77.0,60.8,57,30.05,9.0,Calm,Calm,-,N/A,,Mostly Cloudy,0,2013-07-04 14:35:00
9:55 AM,78.8,60.8,54,30.05,10.0,Calm,Calm,-,N/A,,Mostly Cloudy,0,2013-07-04 14:55:00
10:15 AM,78.8,60.8,54,30.05,7.0,Calm,Calm,-,N/A,,Mostly Cloudy,0,2013-07-04 15:15:00
10:35 AM,78.8,60.8,54,30.05,8.0,Calm,Calm,-,N/A,,Overcast,0,2013-07-04 15:35:00
10:55 AM,78.8,62.6,57,30.04,6.0,Calm,Calm,-,N/A,,Haze,0,2013-07-04 15:55:00
11:15 AM,80.6,64.4,58,30.04,10.0,ENE,3.5,-,N/A,,Mostly Cloudy,60,2013-07-04 16:15:00
11:35 AM,80.6,64.4,58,30.05,9.0,Calm,Calm,-,N/A,,Scattered Clouds,0,2013-07-04 16:35:00
11:55 AM,82.4,64.4,54,30.04,9.0,ENE,3.5,-,N/A,,Partly Cloudy,60,2013-07-04 16:55:00
12:15 PM,82.4,64.4,54,30.04,10.0,East,4.6,-,N/A,,Mostly Cloudy,80,2013-07-04 17:15:00
12:35 PM,80.6,64.4,58,30.04,10.0,East,8.1,-,N/A,,Mostly Cloudy,100,2013-07-04 17:35:00
12:55 PM,78.8,60.8,54,30.04,7.0,ESE,6.9,-,N/A,,Partly Cloudy,120,2013-07-04 17:55:00
1:15 PM,77.0,60.8,57,30.04,9.0,ESE,5.8,-,N/A,,Partly Cloudy,120,2013-07-04 18:15:00
1:35 PM,75.2,57.2,53,30.04,5.0,ESE,3.5,-,N/A,,Light Drizzle,120,2013-07-04 18:35:00
1:55 PM,73.4,57.2,57,30.04,1.8,Calm,Calm,-,0.01,Rain,Rain,0,2013-07-04 18:55:00
2:15 PM,73.4,57.2,57,30.02,4.0,ESE,3.5,-,N/A,,Light Drizzle,120,2013-07-04 19:15:00
2:35 PM,73.4,57.2,57,30.02,9.0,ESE,4.6,-,N/A,,Partly Cloudy,110,2013-07-04 19:35:00
2:55 PM,75.2,57.2,53,30.01,6.0,ESE,6.9,-,N/A,,Haze,110,2013-07-04 19:55:00
3:15 PM,75.2,59.0,57,30.00,10.0,East,5.8,-,N/A,,Partly Cloudy,100,2013-07-04 20:15:00
3:35 PM,78.8,60.8,54,30.00,8.0,East,5.8,-,N/A,,Partly Cloudy,100,2013-07-04 20:35:00
3:55 PM,78.8,62.6,57,30.00,9.0,East,4.6,-,N/A,,Partly Cloudy,100,2013-07-04 20:55:00
4:15 PM,80.6,62.6,54,30.00,10.0,ESE,3.5,-,N/A,,Partly Cloudy,120,2013-07-04 21:15:00
4:35 PM,78.8,62.6,57,30.00,10.0,East,3.5,-,N/A,,Partly Cloudy,90,2013-07-04 21:35:00
4:55 PM,80.6,62.6,54,29.99,10.0,ENE,3.5,-,N/A,,Scattered Clouds,70,2013-07-04 21:55:00
5:15 PM,80.6,62.6,54,29.99,10.0,East,5.8,-,N/A,,Mostly Cloudy,90,2013-07-04 22:15:00
5:35 PM,78.8,62.6,57,29.99,10.0,East,3.5,-,N/A,,Partly Cloudy,90,2013-07-04 22:35:00
5:55 PM,78.8,62.6,57,29.99,10.0,ENE,3.5,-,N/A,,Clear,70,2013-07-04 22:55:00
6:15 PM,78.8,62.6,57,29.99,10.0,East,3.5,-,N/A,,Clear,100,2013-07-04 23:15:00
6:35 PM,80.6,62.6,54,29.98,9.0,ENE,3.5,-,N/A,,Partly Cloudy,60,2013-07-04 23:35:00
6:55 PM,78.8,62.6,57,29.98,10.0,NE,3.5,-,N/A,,Partly Cloudy,50,2013-07-04 23:55:00
7:15 PM,78.8,60.8,54,29.98,9.0,Calm,Calm,-,N/A,,Partly Cloudy,0,2013-07-05 00:15:00
7:35 PM,78.8,60.8,54,29.99,10.0,NE,3.5,-,N/A,,Partly Cloudy,50,2013-07-05 00:35:00
7:55 PM,77.0,60.8,57,30.00,10.0,Calm,Calm,-,N/A,,Partly Cloudy,0,2013-07-05 00:55:00
8:15 PM,75.2,59.0,57,30.00,10.0,East,3.5,-,N/A,,Scattered Clouds,100,2013-07-05 01:15:00
8:35 PM,75.2,57.2,53,29.99,10.0,East,3.5,-,N/A,,Clear,100,2013-07-05 01:35:00
8:55 PM,73.4,57.2,57,30.00,10.0,East,4.6,-,N/A,,Clear,90,2013-07-05 01:55:00
9:15 PM,73.4,57.2,57,30.01,10.0,Calm,Calm,-,N/A,,Clear,0,2013-07-05 02:15:00
9:35 PM,73.4,55.4,53,30.02,10.0,East,3.5,-,N/A,,Clear,100,2013-07-05 02:35:00
9:55 PM,73.4,55.4,53,30.03,10.0,Calm,Calm,-,N/A,,Mostly Cloudy,0,2013-07-05 02:55:00
10:15 PM,71.6,55.4,57,30.03,10.0,Calm,Calm,-,N/A,,Scattered Clouds,0,2013-07-05 03:15:00
10:35 PM,71.6,53.6,53,30.03,10.0,Calm,Calm,-,N/A,,Partly Cloudy,0,2013-07-05 03:35:00
10:55 PM,71.6,55.4,57,30.03,10.0,Calm,Calm,-,N/A,,Mostly Cloudy,0,2013-07-05 03:55:00
11:15 PM,71.6,55.4,57,30.03,10.0,Calm,Calm,-,N/A,,Overcast,0,2013-07-05 04:15:00
11:35 PM,71.6,53.6,53,30.03,10.0,Calm,Calm,-,N/A,,Mostly Cloudy,0,2013-07-05 04:35:00
11:55 PM,71.6,53.6,53,30.03,10.0,Calm,Calm,-,N/A,,Mostly Cloudy,0,2013-07-05 04:55:00